TimeEDT,TemperatureF,Dew PointF,Humidity,Sea Level PressureIn,VisibilityMPH,Wind Direction,Wind SpeedMPH,Gust SpeedMPH,PrecipitationIn,Events,Conditions,WindDirDegrees,DateUTC
12:05 AM,57.2,30.2,36,30.23,10.0,East,5.8,-,0.00,,Clear,90,2013-05-27 04:05:00
12:25 AM,57.2,30.2,36,30.23,10.0,East,9.2,-,0.00,,Clear,90,2013-05-27 04:25:00
12:45 AM,57.2,30.2,36,30.23,10.0,East,8.1,-,0.00,,Clear,90,2013-05-27 04:45:00
1:05 AM,57.2,30.2,36,30.23,10.0,East,6.9,-,0.00,,Clear,100,2013-05-27 05:05:00
1:25 AM,57.2,30.2,36,30.22,10.0,East,5.8,-,0.00,,Clear,100,2013-05-27 05:25:00
1:45 AM,57.2,30.2,36,30.22,10.0,ESE,8.1,-,0.00,,Clear,110,2013-05-27 05:45:00
2:05 AM,57.2,30.2,36,30.21,10.0,East,6.9,-,0.00,,Clear,100,2013-05-27 06:05:00
2:25 AM,55.4,32.0,41,30.20,10.0,ESE,8.1,-,0.00,,Partly Cloudy,110,2013-05-27 06:25:00
2:45 AM,55.4,32.0,41,30.19,10.0,ESE,8.1,-,0.00,,Scattered Clouds,110,2013-05-27 06:45:00
3:05 AM,55.4,32.0,41,30.19,10.0,ESE,8.1,-,0.00,,Scattered Clouds,110,2013-05-27 07:05:00
3:25 AM,55.4,32.0,41,30.19,10.0,ESE,6.9,-,0.00,,Partly Cloudy,120,2013-05-27 07:25:00
3:45 AM,55.4,32.0,41,30.19,10.0,ESE,6.9,-,0.00,,Partly Cloudy,120,2013-05-27 07:45:00
4:05 AM,55.4,32.0,41,30.19,10.0,SE,6.9,-,0.00,,Partly Cloudy,130,2013-05-27 08:05:00
4:25 AM,55.4,33.8,44,30.20,10.0,SE,5.8,-,0.00,,Scattered Clouds,130,2013-05-27 08:25:00
4:45 AM,53.6,35.6,51,30.20,10.0,SE,5.8,-,0.00,,Partly Cloudy,130,2013-05-27 08:45:00
5:05 AM,53.6,37.4,54,30.20,10.0,SE,6.9,-,0.00,,Mostly Cloudy,130,2013-05-27 09:05:00
5:25 AM,53.6,37.4,54,30.20,10.0,ESE,8.1,-,0.00,,Mostly Cloudy,120,2013-05-27 09:25:00
5:45 AM,53.6,35.6,51,30.21,10.0,SE,8.1,-,0.00,,Overcast,140,2013-05-27 09:45:00
6:05 AM,51.8,39.2,62,30.22,9.0,SE,5.8,-,0.00,,Overcast,130,2013-05-27 10:05:00
6:25 AM,51.8,42.8,71,30.22,10.0,SE,4.6,-,0.00,,Overcast,130,2013-05-27 10:25:00
6:45 AM,51.8,41.0,67,30.22,10.0,ESE,5.8,-,0.00,,Overcast,110,2013-05-27 10:45:00
7:05 AM,51.8,42.8,71,30.22,9.0,ESE,6.9,-,0.00,,Overcast,120,2013-05-27 11:05:00
7:25 AM,50.0,42.8,76,30.21,10.0,ESE,6.9,-,0.00,,Overcast,120,2013-05-27 11:25:00
7:45 AM,50.0,42.8,76,30.22,9.0,SE,5.8,-,0.00,,Overcast,130,2013-05-27 11:45:00
8:05 AM,50.0,44.6,82,30.22,10.0,SE,6.9,-,0.00,,Overcast,130,2013-05-27 12:05:00
8:25 AM,50.0,44.6,82,30.21,8.0,ESE,5.8,-,0.00,,Overcast,110,2013-05-27 12:25:00
8:45 AM,50.0,44.6,82,30.21,10.0,ESE,5.8,-,0.00,,Overcast,110,2013-05-27 12:45:00
9:05 AM,51.8,44.6,76,30.21,10.0,SE,8.1,-,0.00,,Overcast,140,2013-05-27 13:05:00
9:25 AM,51.8,44.6,76,30.21,5.0,SE,6.9,-,0.00,,Overcast,140,2013-05-27 13:25:00
9:45 AM,50.0,48.2,94,30.21,5.0,SE,8.1,-,0.03,,Overcast,140,2013-05-27 13:45:00
10:05 AM,50.0,48.2,94,30.20,3.0,SE,12.7,-,0.01,,Overcast,140,2013-05-27 14:05:00
10:25 AM,48.2,48.2,100,30.19,7.0,SE,10.4,-,0.02,,Overcast,130,2013-05-27 14:25:00
10:45 AM,48.2,48.2,100,30.18,7.0,ESE,10.4,-,0.02,,Overcast,120,2013-05-27 14:45:00
11:05 AM,50.0,50.0,100,30.17,10.0,SE,13.8,19.6,0.00,,Overcast,130,2013-05-27 15:05:00
11:25 AM,51.8,50.0,94,30.16,10.0,SE,18.4,21.9,0.00,,Mostly Cloudy,140,2013-05-27 15:25:00
11:45 AM,53.6,51.8,94,30.16,10.0,SE,16.1,-,0.00,,Mostly Cloudy,140,2013-05-27 15:45:00
12:05 PM,55.4,53.6,94,30.15,10.0,SE,13.8,25.3,0.00,,Scattered Clouds,130,2013-05-27 16:05:00
12:25 PM,57.2,51.8,82,30.14,10.0,SE,17.3,21.9,0.00,,Partly Cloudy,130,2013-05-27 16:25:00
12:45 PM,57.2,51.8,82,30.13,10.0,SE,16.1,23.0,0.00,,Partly Cloudy,130,2013-05-27 16:45:00
1:05 PM,60.8,51.8,72,30.12,10.0,SE,16.1,23.0,0.00,,Clear,130,2013-05-27 17:05:00
1:25 PM,60.8,51.8,72,30.10,10.0,SE,20.7,-,0.00,,Clear,140,2013-05-27 17:25:00
1:45 PM,62.6,51.8,68,30.11,10.0,SE,18.4,25.3,0.00,,Partly Cloudy,130,2013-05-27 17:45:00
2:05 PM,64.4,51.8,64,30.09,10.0,SE,20.7,26.5,0.00,,Clear,130,2013-05-27 18:05:00
2:25 PM,66.2,51.8,60,30.09,10.0,SE,16.1,23.0,0.00,,Clear,130,2013-05-27 18:25:00
2:45 PM,66.2,50.0,56,30.09,10.0,SE,16.1,23.0,0.00,,Clear,130,2013-05-27 18:45:00
3:05 PM,68.0,50.0,52,30.07,10.0,SE,19.6,24.2,0.00,,Clear,140,2013-05-27 19:05:00
3:25 PM,69.8,50.0,49,30.06,10.0,SE,20.7,26.5,0.00,,Clear,130,2013-05-27 19:25:00
3:45 PM,68.0,51.8,56,30.06,10.0,SE,18.4,24.2,0.00,,Clear,140,2013-05-27 19:45:00
4:05 PM,68.0,51.8,56,30.05,10.0,SE,18.4,21.9,0.00,,Clear,140,2013-05-27 20:05:00
4:25 PM,68.0,50.0,52,30.04,10.0,SE,15.0,21.9,0.00,,Clear,140,2013-05-27 20:25:00
4:45 PM,66.2,51.8,60,30.04,10.0,SE,13.8,20.7,0.00,,Partly Cloudy,140,2013-05-27 20:45:00
5:05 PM,68.0,51.8,56,30.02,10.0,SE,16.1,-,0.00,,Partly Cloudy,140,2013-05-27 21:05:00
5:25 PM,69.8,51.8,53,30.01,10.0,SE,15.0,19.6,0.00,,Clear,130,2013-05-27 21:25:00
5:45 PM,69.8,51.8,53,30.00,10.0,SE,15.0,-,0.00,,Clear,130,2013-05-27 21:45:00
6:05 PM,69.8,51.8,53,29.98,10.0,SE,13.8,21.9,0.00,,Clear,130,2013-05-27 22:05:00
6:25 PM,69.8,51.8,53,29.98,10.0,SE,18.4,23.0,0.00,,Clear,130,2013-05-27 22:25:00
6:45 PM,68.0,50.0,52,29.98,10.0,ESE,11.5,19.6,0.00,,Clear,120,2013-05-27 22:45:00
7:05 PM,66.2,50.0,56,29.97,10.0,SE,13.8,-,0.00,,Clear,130,2013-05-27 23:05:00
7:25 PM,66.2,51.8,60,29.97,10.0,SE,11.5,17.3,0.00,,Clear,130,2013-05-27 23:25:00
7:45 PM,66.2,51.8,60,29.97,10.0,SE,10.4,17.3,0.00,,Clear,130,2013-05-27 23:45:00
8:05 PM,64.4,51.8,64,29.97,10.0,ESE,11.5,-,0.00,,Scattered Clouds,120,2013-05-28 00:05:00
8:25 PM,62.6,53.6,72,29.97,9.0,SE,15.0,-,0.01,,Mostly Cloudy,140,2013-05-28 00:25:00
8:45 PM,62.6,53.6,72,29.97,10.0,SE,12.7,-,0.01,,Mostly Cloudy,130,2013-05-28 00:45:00
9:05 PM,62.6,53.6,72,29.96,10.0,SE,11.5,-,0.00,,Partly Cloudy,130,2013-05-28 01:05:00
9:25 PM,62.6,53.6,72,29.97,10.0,SE,10.4,-,0.00,,Partly Cloudy,140,2013-05-28 01:25:00
9:45 PM,62.6,53.6,72,29.97,10.0,SE,10.4,-,0.00,,Mostly Cloudy,130,2013-05-28 01:45:00
10:05 PM,62.6,53.6,72,29.97,10.0,SSE,10.4,-,0.00,,Mostly Cloudy,150,2013-05-28 02:05:00
10:25 PM,62.6,55.4,77,29.97,10.0,SE,9.2,-,0.00,,Mostly Cloudy,140,2013-05-28 02:25:00
10:45 PM,62.6,55.4,77,29.98,10.0,SE,9.2,-,0.00,,Scattered Clouds,130,2013-05-28 02:45:00
11:05 PM,60.8,57.2,88,29.97,5.0,ESE,8.1,-,0.00,,Mostly Cloudy,120,2013-05-28 03:05:00
11:25 PM,60.8,55.4,82,29.97,10.0,ESE,6.9,-,0.01,,Overcast,120,2013-05-28 03:25:00
11:45 PM,62.6,55.4,77,29.97,10.0,SE,5.8,-,0.01,,Mostly Cloudy,130,2013-05-28 03:45:00